TimeEDT,TemperatureF,Dew PointF,Humidity,Sea Level PressureIn,VisibilityMPH,Wind Direction,Wind SpeedMPH,Gust SpeedMPH,PrecipitationIn,Events,Conditions,WindDirDegrees,DateUTC
12:04 AM,64.4,62.6,94,29.79,10.0,South,11.5,19.6,N/A,,Overcast,190,2013-05-24 04:04:00
12:52 AM,64.0,62.1,93,29.78,10.0,South,10.4,-,N/A,,Overcast,190,2013-05-24 04:52:00
1:52 AM,64.0,61.0,90,29.76,9.0,South,9.2,-,0.00,Rain,Light Rain,180,2013-05-24 05:52:00
2:28 AM,64.4,60.8,88,29.74,7.0,South,8.1,-,0.03,Rain,Light Rain,190,2013-05-24 06:28:00
2:37 AM,62.6,62.6,100,29.73,10.0,South,6.9,-,0.04,Rain,Light Rain,170,2013-05-24 06:37:00
2:52 AM,63.0,61.0,93,29.73,10.0,South,4.6,-,0.04,Rain,Light Rain,170,2013-05-24 06:52:00
3:02 AM,62.6,60.8,94,29.72,9.0,South,5.8,-,0.01,Rain,Light Rain,180,2013-05-24 07:02:00
3:16 AM,62.6,60.8,94,29.72,9.0,South,4.6,-,0.01,Rain,Light Rain,190,2013-05-24 07:16:00
3:34 AM,62.6,60.8,94,29.71,10.0,South,6.9,-,0.02,Rain,Light Rain,170,2013-05-24 07:34:00
3:47 AM,62.6,60.8,94,29.71,10.0,South,5.8,-,0.02,Rain,Light Rain,180,2013-05-24 07:47:00
3:52 AM,63.0,61.0,93,29.71,9.0,South,5.8,-,0.03,Rain,Light Rain,180,2013-05-24 07:52:00
4:52 AM,63.0,61.0,93,29.70,10.0,SW,3.5,-,0.02,Rain,Light Rain,220,2013-05-24 08:52:00
5:39 AM,62.6,60.8,94,29.68,10.0,Calm,Calm,-,0.01,,Overcast,0,2013-05-24 09:39:00
5:52 AM,63.0,61.0,93,29.68,10.0,SSW,5.8,-,0.01,,Overcast,200,2013-05-24 09:52:00
6:52 AM,63.0,61.0,93,29.69,10.0,SSW,6.9,-,N/A,,Overcast,210,2013-05-24 10:52:00
7:52 AM,63.0,61.0,93,29.71,10.0,SW,4.6,-,0.00,,Overcast,230,2013-05-24 11:52:00
8:02 AM,62.6,60.8,94,29.71,10.0,SSW,4.6,-,N/A,,Overcast,210,2013-05-24 12:02:00
8:52 AM,63.0,61.0,93,29.74,10.0,SW,3.5,-,N/A,,Overcast,230,2013-05-24 12:52:00
9:20 AM,62.6,60.8,94,29.74,10.0,WSW,3.5,-,0.00,Rain,Light Rain,240,2013-05-24 13:20:00
9:30 AM,62.6,60.8,94,29.73,10.0,Variable,3.5,-,0.00,Rain,Light Rain,0,2013-05-24 13:30:00
9:38 AM,64.4,60.8,88,29.73,10.0,SSW,3.5,-,0.01,Rain,Light Rain,200,2013-05-24 13:38:00
9:45 AM,64.4,60.8,88,29.73,10.0,Variable,3.5,-,0.01,Rain,Light Rain,0,2013-05-24 13:45:00
9:52 AM,64.0,61.0,90,29.74,10.0,Calm,Calm,-,0.01,Rain,Light Rain,0,2013-05-24 13:52:00
10:47 AM,66.2,60.8,83,29.74,10.0,West,4.6,-,0.00,,Mostly Cloudy,270,2013-05-24 14:47:00
10:52 AM,66.0,60.1,81,29.74,10.0,West,6.9,-,0.00,,Mostly Cloudy,270,2013-05-24 14:52:00
11:00 AM,66.2,60.8,83,29.74,10.0,West,3.5,-,N/A,,Mostly Cloudy,270,2013-05-24 15:00:00
11:36 AM,66.2,60.8,83,29.74,10.0,SSW,5.8,-,N/A,,Overcast,200,2013-05-24 15:36:00
11:52 AM,66.0,60.1,81,29.75,10.0,Variable,4.6,-,N/A,,Overcast,0,2013-05-24 15:52:00
12:17 PM,60.8,57.2,88,29.75,10.0,WNW,4.6,-,0.01,Rain,Light Rain,290,2013-05-24 16:17:00
12:48 PM,60.8,57.2,88,29.76,10.0,West,5.8,-,0.01,,Overcast,260,2013-05-24 16:48:00
12:52 PM,61.0,55.9,83,29.77,10.0,WSW,4.6,-,0.01,,Overcast,240,2013-05-24 16:52:00
1:50 PM,60.8,53.6,77,29.77,10.0,Variable,5.8,-,N/A,,Overcast,0,2013-05-24 17:50:00
1:52 PM,61.0,54.0,78,29.78,10.0,North,6.9,-,N/A,,Overcast,350,2013-05-24 17:52:00
2:43 PM,55.4,51.8,88,29.78,10.0,Variable,6.9,-,N/A,,Overcast,0,2013-05-24 18:43:00
2:52 PM,55.9,51.1,84,29.79,10.0,NNW,8.1,-,N/A,,Overcast,340,2013-05-24 18:52:00
3:05 PM,57.2,50.0,77,29.78,10.0,North,8.1,16.1,N/A,,Overcast,10,2013-05-24 19:05:00
3:41 PM,55.4,48.2,77,29.79,10.0,North,8.1,19.6,N/A,,Overcast,350,2013-05-24 19:41:00
3:52 PM,55.0,46.9,74,29.80,10.0,North,10.4,20.7,N/A,,Overcast,350,2013-05-24 19:52:00
4:36 PM,55.4,46.4,72,29.79,10.0,Variable,6.9,16.1,N/A,,Overcast,0,2013-05-24 20:36:00
4:52 PM,54.0,45.0,72,29.81,10.0,NNW,8.1,24.2,N/A,,Overcast,330,2013-05-24 20:52:00
5:52 PM,51.1,43.0,74,29.82,10.0,NNW,8.1,23.0,N/A,,Overcast,330,2013-05-24 21:52:00
6:52 PM,50.0,43.0,77,29.83,10.0,Variable,6.9,-,N/A,,Overcast,0,2013-05-24 22:52:00
7:52 PM,48.0,42.1,80,29.86,10.0,Variable,5.8,-,N/A,,Overcast,0,2013-05-24 23:52:00
8:52 PM,46.0,43.0,89,29.87,10.0,North,5.8,-,0.01,Rain,Light Rain,350,2013-05-25 00:52:00
9:52 PM,45.0,43.0,93,29.88,6.0,North,3.5,-,0.01,Rain,Light Rain,350,2013-05-25 01:52:00
10:52 PM,45.0,43.0,93,29.88,6.0,Variable,4.6,-,0.01,Rain,Light Rain,0,2013-05-25 02:52:00
11:52 PM,45.0,43.0,93,29.88,4.0,Calm,Calm,-,0.04,Rain,Rain,0,2013-05-25 03:52:00